Weather in Kabir

Russia / Republic of Dagestan     41°33′37″N   48°02′41″E
temp.,
°C
wind,
m/s
gust,
m/s
humid.,
%
clouds,
%
prec.,
mm/h
press.,
hPa
HPBL,
m
4 july, mon
mon400:00+12s116797 0.1 101614
03:00+12s226877 0.1 101617
06:00+13ssw126896 0.0 101798
09:00+14e226191 0.0 1017666
12:00+17e325494 0.1 10161425
15:00+16e235749 0.2 10171140
18:00+16nnw116186 0.0 1016358
21:00+13wsw226948 0.0 101722
5 july, tue
tue500:00+12wsw45693 0.0 101751
03:00+11wsw45675 0.0 101763
06:00+13wsw45644 0.0 1017132
09:00+19e12463 0.0 10161327
12:00+22e323818 0.0 10152184
15:00+18ese335293 0.1 1015994
18:00+19ne115259 0.0 1015882
21:00+12sw227915 0.0 101716
6 july, wed
wed600:00+12wsw336511 0.0 101722
03:00+11wsw22670 0.0 101715
06:00+14wsw33620 0.0 1017108
09:00+19ene32500 0.0 10171130
12:00+22ene534552 0.0 10162081
15:00+18e326135 0.1 1017907
18:00+17ene436540 0.0 1017472
21:00+11wsw11840 0.0 101911
7 july, thu
thu700:00+11wsw22750 0.0 101817
03:00+11wsw22630 0.0 101816
06:00+14wsw12570 0.0 101782
09:00+18ene42550 0.0 1016637
12:00+20ene435317 0.0 10151227
15:00+20ene535865 0.1 10141153
18:00+17ene336413 0.1 1015581
21:00+12wsw22820 0.2 101612
8 july, fri
fri800:00+12wsw22790 0.0 101514
03:00+12wsw227673 0.0 101512
06:00+15nnw006760 0.0 101587
09:00+19ne325641 0.0 1014860
12:00+22e434156 0.1 10121710
15:00+20ene334896 0.1 1013822
18:00+19ne225155 0.1 1014224
21:00+13wsw22586 0.1 101615